SCP
0 0 0 0 0 0 0 0 0 0 0 0 0 0 0 0 0 0 0 0 0 0 0 0 0 0 0
0 0 0 0 0 0 0 0 0 0 0 0 0 0 0 0 0 0 0 0 0 0 0 0 0 0 0
0 0 0 0 0 0 0 0 0 0 0 0 0 0 0 0 0 0 0 0 0 0 0 0 0 0 0
0 0 0 0 0 0 0 0 0 0 0 0 0 0 0 0 0 0 0 0 0 0 0 0 0 0 0
0 0 0 0 0 0 0 0 0 0 0 0 0 0 0 0 0 0 0 0 0 0 0 0 0 0 0
0 0 0 0 0 0 0 0 0 0 0 0 0 0 0 0 0 0 0 0 0 0 0 0 0 0 0
0 0 0 0 0 0 0 0 0 0 0 0 0 0 0 0 0 0 0 0 0 0 0 0 0 0 0
0 0 0 0 0 0 0 0 0 0 0 0 0 0 0 0 0 0 0 0 0 0 0 0 0 0 0
0 0 0 0 0 0 0 0 0 0 0 0 0 0 0 0 0 0 0 0 0 0 0 0 0 0 0
0 0 0 0 0 0 0 0 0 0 0 0 0 0 0 0 0 0 0 0 0 0 0 0 0 0 0
0 0 0 0 0 0 0 0 0 0 0 0 0 0 0 0 0 0 0 0 0 0 0 0 0 0 0
0 0 0 0 0 0 0 0 0 0 0 0 0 0 0 0 0 0 0 0 0 0 0 0 0 0 0
0 0 0 0 0 0 0 0 0 0 0 0 0 0 0 0 0 0 0 0 0 0 0 0 0 0 0
0 0 0 0 0 0 0 0 0 0 0 0 0 0 0 0 0 0 0 0 0 0 0 0 0 0 0
0 0 0 0 0 0 0 0 0 0 0 0 0 0 0 0 0 0 0 0 0 0 0 0 0 0 0
0 0 0 0 0 0 0 0 0 0 0 0 0 0 0 0 0 0 0 0 0 0 0 0 0 0 0
0 0 0 0 0 0 0 0 0 0 0 0 0 0 0 0 0 0 0 0 0 0 0 0 0 0 0
Wind_Speed_500mb
81 88 88 80 85 87 91 93 81 62 50 49 50 49 52 53 54 55 50 38 35 35 35 34 30 32 31
93 75 85 80 73 79 91 81 62 54 53 50 50 54 55 53 54 50 48 40 35 38 36 35 33 34 32
100 67 70 66 71 72 80 65 52 52 52 49 57 56 55 53 51 53 49 44 37 39 36 36 37 35 31
64 68 52 51 57 69 70 60 62 63 59 59 58 57 56 56 48 50 46 41 38 34 35 33 37 36 29
58 67 65 59 69 74 79 76 76 72 69 66 68 62 60 58 50 46 47 43 37 32 33 36 33 26 28
66 65 81 77 79 88 89 87 75 79 73 73 71 66 61 57 53 49 46 45 38 33 36 32 28 26 29
69 77 70 71 82 91 89 98 91 84 84 81 76 69 57 56 53 48 46 43 38 34 32 30 28 27 27
67 72 75 63 68 78 95 95 98 89 83 73 71 70 60 58 55 53 47 43 39 35 32 28 28 28 27
74 71 73 74 72 71 86 90 94 94 84 68 62 56 59 59 57 53 48 45 42 36 32 29 28 29 27
65 71 72 68 82 74 80 91 93 84 84 75 63 60 49 61 60 60 54 48 44 39 32 30 27 28 29
62 63 67 65 73 76 73 79 91 87 79 77 75 67 55 41 71 65 58 51 49 42 35 33 30 29 28
61 62 66 72 75 69 74 80 81 81 74 69 79 75 74 59 41 66 62 58 50 43 36 37 35 31 28
62 63 65 68 67 75 85 85 82 80 66 62 59 58 68 69 57 48 69 66 56 48 43 42 38 35 31
61 61 61 62 67 82 88 84 79 70 65 60 57 58 57 60 57 49 54 47 58 55 49 47 45 40 36
51 56 56 61 64 73 76 76 82 74 69 65 64 59 50 49 55 57 50 53 39 58 57 53 48 44 39
40 50 56 57 66 64 69 69 73 69 74 75 73 66 57 51 50 52 54 55 47 61 56 53 49 46 41
33 37 44 53 58 67 76 69 73 66 73 69 76 75 72 60 56 52 52 54 52 57 58 52 46 42 38
Wind_Direction_500mb
271 273 268 270 268 256 235 229 224 222 214 219 226 235 239 246 248 250 258 259 258 255 266 273 275 276 287
262 258 270 270 260 240 223 219 215 208 212 218 227 234 239 245 249 250 253 254 254 259 262 266 272 278 281
253 260 264 256 243 226 215 212 208 213 215 221 227 234 242 249 250 246 241 245 253 257 262 268 270 270 269
260 260 247 240 231 215 210 210 213 215 218 226 233 238 244 248 249 240 235 245 250 255 263 266 270 267 253
268 238 232 222 217 212 213 213 214 219 222 227 233 236 244 247 249 236 235 243 248 252 261 271 266 244 245
251 257 238 237 229 216 217 216 213 217 222 228 232 235 241 243 240 234 235 239 244 249 261 264 249 239 245
255 259 255 245 240 235 238 233 224 230 224 228 231 237 240 240 235 234 233 238 241 247 256 258 248 236 242
262 253 254 254 252 251 244 232 230 227 215 217 228 236 238 233 230 230 231 235 241 244 241 243 240 237 234
264 259 252 254 252 245 232 226 219 218 214 218 219 233 231 225 225 228 230 233 235 237 239 231 223 228 223
262 261 255 241 247 245 244 231 211 207 210 205 217 219 214 219 219 221 224 226 229 231 226 228 226 219 213
264 261 252 249 238 230 231 234 219 209 216 209 217 212 206 212 212 216 220 221 220 222 215 216 212 206 207
262 255 252 238 234 229 221 216 215 224 219 214 214 217 215 212 200 214 214 215 214 215 207 207 204 198 196
266 258 247 248 238 228 219 216 213 215 219 217 223 223 218 219 217 212 205 209 208 205 201 201 197 193 190
264 265 256 241 236 229 214 211 214 202 203 209 211 208 208 212 217 206 203 200 206 203 199 200 196 192 189
268 263 262 242 231 229 222 209 204 206 204 198 199 200 202 218 208 208 204 202 205 200 198 199 197 193 193
280 267 261 250 235 225 219 218 214 208 205 199 196 192 194 197 204 205 200 204 200 196 198 201 198 196 199
290 280 274 258 244 230 223 226 222 217 211 208 202 199 192 191 194 195 204 196 196 193 195 200 198 203 204
Wind_Speed_850mb
81 88 88 80 85 87 91 93 81 62 50 49 50 49 52 53 54 55 50 38 35 35 35 34 30 32 31
93 75 85 80 73 79 91 81 62 54 53 50 50 54 55 53 54 50 48 40 35 38 36 35 33 34 32
100 67 70 66 71 72 80 65 52 52 52 49 57 56 55 53 51 53 49 44 37 39 36 36 37 35 31
64 68 52 51 57 69 70 60 62 63 59 59 58 57 56 56 48 50 46 41 38 34 35 33 37 36 29
58 67 65 59 69 74 79 76 76 72 69 66 68 62 60 58 50 46 47 43 37 32 33 36 33 26 28
66 65 81 77 79 88 89 87 75 79 73 73 71 66 61 57 53 49 46 45 38 33 36 32 28 26 29
69 77 70 71 82 91 89 98 91 84 84 81 76 69 57 56 53 48 46 43 38 34 32 30 28 27 27
67 72 75 63 68 78 95 95 98 89 83 73 71 70 60 58 55 53 47 43 39 35 32 28 28 28 27
74 71 73 74 72 71 86 90 94 94 84 68 62 56 59 59 57 53 48 45 42 36 32 29 28 29 27
65 71 72 68 82 74 80 91 93 84 84 75 63 60 49 61 60 60 54 48 44 39 32 30 27 28 29
62 63 67 65 73 76 73 79 91 87 79 77 75 67 55 41 71 65 58 51 49 42 35 33 30 29 28
61 62 66 72 75 69 74 80 81 81 74 69 79 75 74 59 41 66 62 58 50 43 36 37 35 31 28
62 63 65 68 67 75 85 85 82 80 66 62 59 58 68 69 57 48 69 66 56 48 43 42 38 35 31
61 61 61 62 67 82 88 84 79 70 65 60 57 58 57 60 57 49 54 47 58 55 49 47 45 40 36
51 56 56 61 64 73 76 76 82 74 69 65 64 59 50 49 55 57 50 53 39 58 57 53 48 44 39
40 50 56 57 66 64 69 69 73 69 74 75 73 66 57 51 50 52 54 55 47 61 56 53 49 46 41
33 37 44 53 58 67 76 69 73 66 73 69 76 75 72 60 56 52 52 54 52 57 58 52 46 42 38
Wind_Direction_850mb
271 273 268 270 268 256 235 229 224 222 214 219 226 235 239 246 248 250 258 259 258 255 266 273 275 276 287
262 258 270 270 260 240 223 219 215 208 212 218 227 234 239 245 249 250 253 254 254 259 262 266 272 278 281
253 260 264 256 243 226 215 212 208 213 215 221 227 234 242 249 250 246 241 245 253 257 262 268 270 270 269
260 260 247 240 231 215 210 210 213 215 218 226 233 238 244 248 249 240 235 245 250 255 263 266 270 267 253
268 238 232 222 217 212 213 213 214 219 222 227 233 236 244 247 249 236 235 243 248 252 261 271 266 244 245
251 257 238 237 229 216 217 216 213 217 222 228 232 235 241 243 240 234 235 239 244 249 261 264 249 239 245
255 259 255 245 240 235 238 233 224 230 224 228 231 237 240 240 235 234 233 238 241 247 256 258 248 236 242
262 253 254 254 252 251 244 232 230 227 215 217 228 236 238 233 230 230 231 235 241 244 241 243 240 237 234
264 259 252 254 252 245 232 226 219 218 214 218 219 233 231 225 225 228 230 233 235 237 239 231 223 228 223
262 261 255 241 247 245 244 231 211 207 210 205 217 219 214 219 219 221 224 226 229 231 226 228 226 219 213
264 261 252 249 238 230 231 234 219 209 216 209 217 212 206 212 212 216 220 221 220 222 215 216 212 206 207
262 255 252 238 234 229 221 216 215 224 219 214 214 217 215 212 200 214 214 215 214 215 207 207 204 198 196
266 258 247 248 238 228 219 216 213 215 219 217 223 223 218 219 217 212 205 209 208 205 201 201 197 193 190
264 265 256 241 236 229 214 211 214 202 203 209 211 208 208 212 217 206 203 200 206 203 199 200 196 192 189
268 263 262 242 231 229 222 209 204 206 204 198 199 200 202 218 208 208 204 202 205 200 198 199 197 193 193
280 267 261 250 235 225 219 218 214 208 205 199 196 192 194 197 204 205 200 204 200 196 198 201 198 196 199
290 280 274 258 244 230 223 226 222 217 211 208 202 199 192 191 194 195 204 196 196 193 195 200 198 203 204